Location: Newark
(34.7333°N, 33.0833°E)
Time: 16:33:26
(UTC+00:00)

Hubble Space Telescope - Visible Passes

Search period start: 24 January 2020 00:00
Search period end: 03 February 2020 00:00
Orbit: 536 x 540 km, 28.5° (Epoch: 23 January)

Date Brightness Start Highest point End Pass type
(mag) Time Alt. Az. Time Alt. Az. Time Alt. Az.
28 Jan 3.4 04:22:41 10° SSW 04:25:27 18° SSE 04:28:15 10° ESE visible
29 Jan 3.1 04:11:40 10° SSW 04:14:45 20° SSE 04:17:51 10° ESE visible
30 Jan 2.8 04:00:44 10° SW 04:04:03 23° SSE 04:07:22 10° ESE visible
31 Jan 3.7 02:13:40 11° SE 02:13:40 11° SE 02:14:05 10° SE visible
31 Jan 2.6 03:49:53 10° SW 03:53:21 26° SSE 03:56:50 10° ESE visible
01 Feb 3.8 02:03:55 11° SE 02:03:55 11° SE 02:04:12 10° SE visible
01 Feb 2.3 03:39:16 11° SW 03:42:41 29° S 03:46:16 10° ESE visible
02 Feb 2.1 03:29:25 16° SW 03:31:59 31° S 03:35:40 10° ESE visible
